Location: Hurstbourne Priors
(51.2000°N, 1.3667°W)
Time: 08:03:39
(UTC+00:00)

NOSS 3-4 (A) - Pass Details

Date: 09 April 2020
Orbit: 895 x 1317 km, 63.4° (Epoch: 30 May)

Event Time Altitude Azimuth Distance (km) Brightness Sun altitude
Rises 19:23:22 0° 315° (NW) 3,794 8.0 -5.5°
Reaches altitude 10° 19:25:53 10° 313° (NW) 2,895 7.3 -5.8°
Maximum altitude 19:32:45 71° 231° (SW) 1,206 4.1 -6.8°
Drops below altitude 10° 19:40:21 10° 149° (SSE) 3,184 5.7 -7.9°
Enters shadow 19:42:35 - 148° (SSE) 3,965 6.2 -8.3°
